www.pogodaiklimat.ru

Погода и климат >> Архив погоды >> Буркина-Фасо >> По


ПОГОДА в По

  • Прогноз погоды в По
  • Монитор погоды в По

АРХИВ ПОГОДЫ в По

Время (UTC), дата Ветер
(напр.,м/с)
 
Видим.   Явления Облачность Т
(С)
Тd
(С)
f
(%)
Тe
(С)
Тes
(С)
Комфортность P
(гПа)
Po
(гПа)
Тmin
(С)
Tmax
(С)
R
(мм)
R24
(мм)
S
(см)
18 16.07 штиль 0 10 км 9/1 800 м
[Cb cap Ac As Ci sp]
+29.0 +24.1 75 +40 +40 очень
душно
1009.8 973.7 +30.1
21 16.07 Ю 1 10 км зарница 9/1 900 м
[Cb cap Ac As]
+27.0 +24.6 87 +38 +38 очень
душно
1011.1 975.0
00 17.07 Ю 2 10 км в посл. час дождь 9/1 800 м
[Cb cap Ac As Ci sp]
+26.0 +22.4 81 +34 +34 очень
душно
1011.1 975.1 0.0
03 17.07 ЮЗ 1 10 км слаб. дождь 10/0
[Ac As]
+24.0 +23.3 96 +32 +32 очень
душно
1010.9 975.0
06 17.07 Ю 2 10 км {дождь} 9/5 400 м
[St Ac As Ci sp]
+23.5 +22.6 95 +31 +31 очень
душно
1012.2 976.1 +22.5 17
09 17.07 Ю 2 10 км {дождь} 9/3 600 м
[Cu Sc Ac trans Ci sp]
+25.8 +22.9 84 +34 +39 очень
душно
1014.3 978.2
12 17.07 Ю 2 10 км {дождь} 9/8 600 м
[Cu Sc Ac trans Ci sp]
+29.6 +24.1 72 +41 +44 опасность
перегрева
1013.2 977.2 0.5
15 17.07 Ю 2 10 км 9/4 600 м
[Cu Sc Ac trans Ci sp]
+30.5 +23.9 68 +42 +46 опасность
перегрева
1010.4 974.5
18 17.07 ЮЗ 1 10 км 9/1 600 м
[Cu Sc Ac trans Ci sp]
+30.5 +23.9 68 +42 +42 опасность
перегрева
1009.5 973.6 +31.7 0.5
21 17.07 ЮЗ 1 10 км 9/1 600 м
[Sc Ac trans Ci sp]
+27.4 +24.0 82 +38 +38 очень
душно
1010.7 974.7
00 18.07 З 1 10 км 9/0
[Ac trans Ci sp]
+26.0 +23.9 88 +36 +36 очень
душно
1011.3 975.4
03 18.07 З 1 10 км 9/0
[Ac trans Cs]
+25.3 +23.1 88 +34 +34 очень
душно
1010.6 974.8
06 18.07 ЮЗ 2 10 км 9/0
[Ac trans Cs]
+24.7 +23.0 90 +33 +33 очень
душно
1010.3 974.4 +23.8 0.5
09 18.07 ЮЗ 1 10 км гроза, ливневой дождь 10/1 900 м
[Cb cap As op]
+22.0 +21.3 96 +29 +31 очень
душно
1014.5 978.1
12 18.07 З 3 10 км в посл. час дождь {гроза} 9/0
[Ac As Ci sp]
+23.5 +21.0 86 +30 +36 очень
душно
1010.7 974.5 14
18 18.07 В 1 10 км 9/0
[Ac trans Ci sp]
+27.0 +24.2 85 +38 +38 очень
душно
1009.4 973.4 +28.5 14
21 18.07 Ю 1 10 км 9/0
[Ac As]
+25.9 +23.2 85 +35 +35 очень
душно
1011.1 974.8
03 19.07 Ю 2 10 км слаб. дождь 9/0
[Ac As]
+23.5 +22.0 91 +30 +30 очень
душно
1009.7 973.6
06 19.07 ЮЗ 2 10 км {дождь} 9/0
[Ac As Ci sp]
+22.1 +21.1 94 +29 +29 очень
душно
1010.8 974.6 +21.2 16
09 19.07 СЗ 1 10 км 9/1 600 м
[Sc Ac As Ci sp]
+24.5 +22.2 87 +32 +38 очень
душно
1012.8 976.5
12 19.07 ЮЗ 2 10 км слаб. дождь 9/3 600 м
[Sc Ac As Ci sp]
+26.0 +23.6 87 +35 +44 очень
душно
1012.4 976.2 1
15 19.07 ЮЗ 1 10 км {дождь} 9/6 600 м
[Sc Ac As Ci sp]
+26.5 +23.8 85 +36 +40 очень
душно
1010.9 974.7
18 19.07 З 1 10 км {дождь} 9/1 600 м
[Sc Ac As Ci sp]
+26.5 +23.3 83 +36 +36 очень
душно
1009.7 973.5 +27.0 1
21 19.07 В 1 10 км 9/0
[Ac trans Ci sp]
+24.6 +23.7 95 +33 +33 очень
душно
1010.9 974.7
00 20.07 ЮВ 1 10 км 9/0
[Ci sp]
+24.5 +23.6 95 +33 +33 очень
душно
1011.0 974.8
03 20.07 ЮЗ 1 10 км 9/0
[Ac trans Ci sp]
+23.8 +23.1 96 +32 +32 очень
душно
1010.7 974.5
06 20.07 ЮЗ 1 10 км 9/1 600 м
[Sc Ac trans Ci sp]
+23.5 +22.8 96 +31 +31 очень
душно
1011.1 974.9 +22.5 1
09 20.07 Ю 2 10 км 9/1 600 м
[Sc Ac As]
+26.0 +23.1 84 +35 +38 очень
душно
1012.9 976.7
12 20.07 ЮЗ 3 10 км 9/4 600 м
[Cu Sc Ac trans Ci sp]
+28.9 +23.3 72 +39 +45 очень
душно
1012.2 976.1
15 20.07 З 1 10 км 9/6 600 м
[Cu Sc Ac trans Ci sp]
+31.0 +24.0 66 +43 +46 опасность
перегрева
1010.4 974.5
18 20.07 С 2 10 км 9/1 600 м
[Cb cap Ac trans Ci sp]
+27.0 +21.9 74 +35 +35 очень
душно
1009.7 973.6 +31.2
21 20.07 штиль 0 10 км 9/0
[Ac As Ci sp]
+23.9 +22.0 89 +31 +31 очень
душно
1011.5 975.3
00 21.07 штиль 0 10 км 9/0
[Ci sp]
+24.0 +22.5 91 +31 +31 очень
душно
1011.5 975.5
03 21.07 СВ 1 10 км 9/0
[Ac trans Ci sp]
+23.2 +21.4 90 +31 +31 очень
душно
1010.3 974.4
06 21.07 ЮВ 1 10 км 9/0
[Ac As]
+24.0 +22.5 91 +31 +31 очень
душно
1011.4 975.2 +22.2
09 21.07 Ю 2 10 км 9/6 400 м
[Sc Ac trans Ci sp]
+25.3 +22.7 86 +33 +36 очень
душно
1012.6 976.3
12 21.07 ЮЗ 1 10 км 9/9 600 м
[Cb cap Ac trans Ci sp]
+28.0 +23.0 74 +37 +40 очень
душно
1012.3 976.2
15 21.07 С 1 10 км {дождь} 9/5 600 м
[Cb cap Ci sp]
+30.3 +22.4 63 +40 +45 очень
душно
1008.4 972.6
18 21.07 С 1 10 км слаб. дождь 9/8 600 м
[Cb cap Ac As Ci sp]
+26.6 +24.9 90 +38 +38 очень
душно
1008.6 972.6 +31.3 7
21 21.07 штиль 0 10 км {дождь} 9/5 400 м
[St Ac trans Ci sp]
+25.4 +24.6 95 +36 +36 очень
душно
1009.8 973.7
00 22.07 Ю 1 10 км {дождь} 9/3 400 м
[St Ac trans Ci sp]
+25.4 +24.3 94 +35 +35 очень
душно
1010.8 974.8 0.8
03 22.07 Ю 1 10 км 9/0
[Ac trans Ci sp]
+24.2 +23.3 95 +32 +32 очень
душно
1010.3 974.4
06 22.07 Ю 1 10 км 9/1 600 м
[Sc Ac trans Ci sp]
+23.4 +22.5 95 +32 +32 очень
душно
1011.1 974.9 +22.6 8
09 22.07 ЮВ 1 10 км 9/6 600 м
[Cu Sc Ac trans Ci sp]
+26.6 +23.5 83 +36 +39 очень
душно
1013.1 976.9
12 22.07 Ю 2 10 км 9/9 600 м
[Cu Sc Ci sp]
+29.0 +23.3 71 +39 +41 очень
душно
1012.5 976.5
15 22.07 Ю 3 10 км 9/1 600 м
[Cu Sc Cs]
+30.5 +22.8 64 +40 +48 очень
душно
1008.9 973.1
18 22.07 Ю 1 10 км 9/1 600 м
[Cu Sc Ci sp]
+29.1 +22.8 69 +39 +39 очень
душно
1009.3 973.4 +30.9
21 22.07 Ю 1 10 км 9/0
[Ac trans Ci sp]
+26.9 +23.8 83 +37 +37 очень
душно
1009.6 973.7
00 23.07 Ю 1 10 км 9/0
[Ac trans Ci sp]
+25.5 +23.6 89 +35 +35 очень
душно
1009.9 974.0
03 23.07 Ю 1 10 км 9/0
[Ac trans Ci sp]
+25.4 +23.5 89 +34 +34 очень
душно
1009.5 973.7
06 23.07 Ю 1 10 км в посл. час дождь 9/0
[Ac As Ci sp]
+25.0 +23.7 93 +34 +34 очень
душно
1010.6 974.6 +24.0 0.1
09 23.07 ЮЗ 2 10 км 9/1 600 м
[Sc Ac As Ci sp]
+27.0 +23.6 82 +37 +42 очень
душно
1011.3 975.3
12 23.07 ЮЗ 2 10 км 9/8 600 м
[Cu Sc Ac trans Ci sp]
+30.0 +22.8 65 +40 +43 очень
душно
1010.7 974.8
15 23.07 С 4 10 км гроза без осадков 9/6 600 м
[Cb cap Ac As Ci sp]
+25.3 +22.5 84 +33 +35 очень
душно
1009.5 973.4

 

Местоположение метеостанции По (Буркина-Фасо): широта 11.15 долгота -1.15 высота над уровнем моря 322 м.

В архиве по умолчанию представлена погода в По за последнюю неделю. Архивные данные за месяц целиком и за предыдущие месяцы, начиная с января 2011 года, Вы можете получить, выбрав интересующий диапазон дат из раскрывающегося списка и нажав кнопку "Ввод!".


*Определитесь, кто Вы:
робот инопланетянин человек

Внимание! Время в таблицах - всемирное. Для получения местного времени необходимо прибавить поправку, которая равна 0 ч.

Смотрите также архив погоды в соседних городах и на ближайших метеорологических станциях:

Погода в Навронго (Гана) (28 км)
Погода в Уагадугу (Буркина-Фасо) (139 км)
Погода в Дапаоне (Того) (167 км)
Погода в Тамале (Гана) (186 км)
Погода в Ва (Гана) (192 км)
Погода в Фада-Нгурме (Буркина-Фасо) (192 км)
Погода в Манго (Того) (197 км)
Погода в Боромо (Буркина-Фасо) (205 км)
Погода в Йенди (Гана) (226 км)
Погода в Гауа (Буркина-Фасо) (240 км)

Пояснения к столбцам:

Ветер - указаны скорость ветра в м/с - средняя за 10 мин, порывы в срок и между сроками (в фигурных скобках) и направление, откуда дует ветер: С - северный, СВ - северо-восточный, В - восточный, ЮВ - юго-восточный, Ю - южный, ЮЗ - юго-западный, З - западный, СЗ - северо-западный.
Видимость - горизонтальная дальность видимости в метрах или километрах. При видимости от 1 до 10 км при отсутствии осадков обычно наблюдается дымка, при ухудшении видимости до 1 км и менее - туман. В сухую погоду видимость может ухудшаться дымом, пылью или мглою.
Явления - указаны атмосферные явления, наблюдавшиеся в срок или в последний час перед сроком; фигурными скобками обозначены явления, наблюдавшиеся между сроками (за 1-3 часа до срока); квадратными скобками обозначены град или гололедные отложения с указанием их диаметра в мм.
Облачность - указаны через наклонную черту общая и нижняя облачность в баллах и высота нижней границы облаков в метрах; квадратными скобками обозначены формы облаков: Ci - перистые, Cs - перисто-слоистые, Cc - перисто-кучевые, Ac - высококучевые, As - высокослоистые, Sc - слоисто-кучевые, Ns - слоисто-дождевые, Cu - кучевые, Cb - кучево-дождевые. Подробнее классификацию облаков см. в Атласе облаков (PDF).
T - Температура воздуха - температура, измеренная на высоте 2 м над землей.
Td - Температура точки росы - температура, при понижении до которой содержащийся в воздухе водяной пар достигнет насыщения.
f - Относительная влажность воздуха - влажноcть воздуха, измеренная на высоте 2 м над землей.
Te - Эффективная температура - температура, которую ощущает одетый по сезону человек в тени. Характеристика душности погоды. При расчете учитывается влияние влажности воздуха и скорости ветра на теплоощущения человека.
Tes - Эффективная температура на солнце - температура, которую ощущает человек, с поправкой на солнечный нагрев. Характеристика знойности погоды. Зависит от высоты солнца над горизонтом, облачности и скорости ветра. Ночью, в пасмурную погоду, а также при ветре 12 м/с и более поправка равна нулю.
P - Атмосферное давление - приведенное к уровню моря атмосферное давление.
Po - Атмосферное давление - измеренное на уровне метеостанции атмосферное давление.
Tmin - Минимальная температура - минимум температуры воздуха на высоте 2 м над землей.
Tmax - Максимальная температура - максимум температуры воздуха на высоте 2 м над землей.
R - Количество осадков - Количество выпавших осадков за период времени, мм. При наведении курсора мыши на число - период времени, за который выпало указанное количество осадков.
R24 - Количество осадков - Количество выпавших осадков за 24 часа, мм.
S - Снежный покров - Высота снежного покрова, см. При наведении курсора мыши на число - состояние снежного покрова и степень покрытия местности в баллах.